Погода в Тюкалинске

Погода в Тюкалинске : погода сейчас, прогноз погоды и архив. Всё, что Вы хотите узнать о погоде в Тюкалинске!

Хотите узнать прогноз погоды в Тюкалинске? Тогда Вам сюда: Погода в Тюкалинске

Поиск расширенной информации на нашем сайте:

Другие новости

Новости СМИ2

Главная страница сайта

Новости сайта

02.10.2013

Напоминаем, что на нашем новом сайте вы можете получить высокодетализированные прогнозы погоды по пунктам России, СНГ и мира (включающие важные для авиации метеовеличины, такие как направление и скорость ветра, видимость, явления погоды, количество и форма облачности, нижняя и верхняя граница облачности), а также ознакомиться с разнообразными материалами по авиационной метеорологии и подборкой полезных ссылок на эту тему.

Сайт Метеоцентр.Азия посвящён разработке технологий оптимизации авиаметеорологического обслуживания, включая проектирование и перспективное создание нескольких автоматизированных авиаметеорологических систем:
- система выпуска высокодетальных прогностических карт явлений погоды для нижнего воздушного пространства по России и ближнему зарубежью;
- система верификации прогнозов TAF (выпускаемых синоптиками официальных АМСГ РФ и ближнего зарубежья) и AUTOTAF (выпускаемых сайтом Метеоцентр.Азия) - выявление ошибок, онлайн-сопоставление с фактической погодой METAR, автоматическое внесение коррективов в прогнозы при резком отклонении фактической погоды от прогноза, подсчёт оправдываемости прогнозов по элементам и в целом;
- система обработки, анализа и отображения авиаметеорологической информации для применения провайдерами метеорологической информации.

Рекомендуем: Черный щебень цена.

Погода в Тюкалинске - сегодня

Время (UTC), дата Ветер
(°,м/с) 
Видим.   Явления Облачность Т
(°С)
Тd
(°С)
f(%) Тe
(°С)
Pmin
(гПа)
dP
(гПа)
Po
(мм)
O2
(г/м3)
Тmin Tmax R s Состояние
почвы
21 27.03.17 170 (Ю) 10 км  {снег}  10/0 средняя 
[As op]
+1.8 +0.6 92 1010.4  -1.1  747  299           
00 28.03.17 180 (Ю) 6{10}  4000 м  слаб. дождь{снег}  10/10 300 м 
[Ns]
+2.2 +0.8 90 -1  1008  -2.4  745  298           
03 28.03.17 180 (Ю) 6-10{14}  4000 м  слаб. снег{дождь}  10/10 300 м 
[Ns]
+1.1 -0.3 90 -2  1006.2  -1.8  744  299  +1    39  неравномерный
мокрый или
старый снег
100% 
06 28.03.17 210 (ЮЗ) 6{12}  20000 м  {снег, дождь}  10/10 600 м 
[Sc]
+2.6 -0.4 81 1006.6  0.5  744  297           
09 28.03.17 250 (З) 5{10}  20000 м  {снег}  9/4 1000 м верхняя 
[Cu hum|Ci sp]
+2.6 -1.9 72 1008  1.4  745  298           
12 28.03.17 180 (Ю) 20000 м  {снег}  9/3 1000 м верхняя 
[Cu hum|Ci sp]
+2.2 -2.7 70 1007.5  -0.5  745  298           
15 28.03.17 150 (ЮВ) 10 км    10/0 средняя 
[As op]
+0.4 -1.4 88 -1  1006  -1.6  744  299    +3.2  0.0     
18 28.03.17 170 (Ю) 6{10}  4000 м  слаб. дождь{снег}  10/10 300 м 
[Ns]
+1.8 +0.5 91 -1  1001.5  -4.4  740  296           
21 28.03.17 190 (Ю) 5{10}  4000 м  слаб. снег{дождь}  10/10 300 м 
[Ns]
+1.7 +0.4 91 -1  998.9  -2.5  738  296           
00 29.03.17 210 (ЮЗ) 4000 м  слаб. дождь{снег}  10/10 300 м 
[Ns]
+0.8 -0.2 93 -2  998.4  -0.6  738  296           
03 29.03.17 230 (ЮЗ) 20000 м  {снег, дождь}  10/10 600 м 
[Sc]
+1.2 -0.7 87 -2  1000.2  1.9  739  297  +0.2    33  неравномерный
мокрый или
старый снег
100% 
06 29.03.17 230 (ЮЗ) 6{13}  20000 м  {снег}  10/10 600 м 
[Sc]
+1.8 -3.1 70 -1  1002.8  2.6  741  297           
09 29.03.17 230 (ЮЗ) 7-12{12}  20000 м    9/9 600 м 
[Sc]
+3.2 -3.2 63 1004.8  743  296           
12 29.03.17 200 (Ю) 5{12}  20000 м    4/4 1000 м 
[Cu hum]
+3 -3.1 64 +1  1006.3  1.5  744  297           
15 29.03.17 180 (Ю) 10 км    4/0 средняя 
[Ac lent]
+0.6 -2.7 79 -2  1007.4  745  300    +3.8       
18 29.03.17 160 (Ю) 10 км    3/0 средняя 
[Ac lent]
+0.1 -2.8 81 -2  1006.5  -0.9  744  300           
21 29.03.17 140 (ЮВ) 10 км    3/0 верхняя 
[Ci fib]
-0.8 -3.2 84 -3  1004  -2.5  742  300           
00 30.03.17 120 (ЮВ) 10 км    9/9 600 м 
[Sc]
-2.4 -3.9 89 -6  999.6  -4.4  739  301           
03 30.03.17 120 (ЮВ) 8-11{13}  20000 м    8/8 300 м 
[St]
-0.3 -1.9 89 -5  994.2  -5.2  735  297  -2.7      30  неравномерный
мокрый или
старый снег
100% 
06 30.03.17 160 (Ю) 6-10{12}  20000 м  в посл. час ливневой снег  10/10 600 м кучево-дожд. 
[Cb cap]
+1.1 +0.1 93 -2  990.7  -3.4  732  294           
09 30.03.17 190 (Ю) 7-11{15}  20000 м  {ливн. осадки}  9/9 600 м кучево-дожд. 
[Cb cap]
+2.7 -4.8 58 -1  989.4  -1.1  731  292           
12 30.03.17 180 (Ю) 6-11{13}  20000 м  в посл. час ливневой снег  10/10 600 м кучево-дожд. 
[Cb cap]
+1.4 -2.8 74 -2  987.6  -1.8  730  293           
15 30.03.17 180 (Ю) 5{17}  4000 м  слаб. ливневой снег  10/10 600 м кучево-дожд. 
[Cb cap]
-1.1 -3.1 86 -4  987.5  -0.3  730  296    +3.1  0.5     
18 30.03.17 230 (ЮЗ) 6{10}  10 км  {ливн. осадки}  10/10 600 м кучево-дожд. 
[Cb cap]
+0.2 -2.6 81 -3  989.8  2.3  732  295           
21 30.03.17 240 (ЮЗ) 7-12{12}  4000 м  слаб. ливневой снег  10/10 600 м кучево-дожд. 
[Cb cap]
+0.5 -0.8 91 -3  994  4.2  735  296           
Время (UTC), дата Ветер
(°,м/с) 
Видим.   Явления Облачность Т
(°С)
Тd
(°С)
f(%) Тe
(°С)
Pmin
(гПа)
dP
(гПа)
Po
(мм)
O2
(г/м3)
Тmin Tmax R s Состояние
почвы

Для получения пояснительной информации подведите курсор к названию столбца.

ПОГОДА в Тюкалинске - архив

Всё, что Вы хотите узнать о погоде в Тюкалинске - удобно и подробно!

Выберите нужную дату (начиная с 1 января 2015* года) и нажмите кнопку "Найти".
Будут отображены архивные сводки погоды по пункту Тюкалинск, начиная с указанной даты.


Отображать данные в формате CSV (для использования в таблицах Excel)


Внимание! Наш архив погоды предназначен исключительно для личного некоммерческого использования в познавательных целях. Если Вам необходимы официальные справки о состоянии погоды (для производственных, юридических, коммерческих и т.п. целей), обращайтесь в органы Росгидромета.

*Примечание: данная дата относится к архиву по метеостанциям СССР (Россия, СНГ, Балтия).
Архив по метеостанциям Зарубежной Европы и Азии (кроме Китая) хранится 10 дней, по другим регионам земного шара (Китай, Африка, Америка, Австралия, Океания) - 1 день.

Тюкалинск - район местоположения метеостанции


Название, широта, долгота, высота метеостанции:
Тюкалинск 55.9°ш. 72.2°д. 118 м над ур. моря [Российская Федерация]

Дополнительная информация

В oтличие oт бoльшинства пoгoдных сайтoв мы публикуем пoдрoбную метеoинфoрмацию в детальнoм прoфессиoнальнoм фoрмате.

Характеристики температуры и влажнoсти вoздуха измеряются на высoте 2 м в тени вдали oт зданий и деревьев.
Скoрoсть ветра измеряется на высoте 10 м (на урoвне рoста челoвека скoрoсть ветра ниже в 1.5-2 раза). Если метеoстанция нахoдится в гoрoде или в лесу, тo скoрoсть ветра занижена на 2-4 м/с пo сравнению с oткрытым местoм. Скoрoсть ветра над акватoриями крупных рек и oзёр, а также на вершинах хoлмoв на 2-5 м/с выше, чем в oбычных услoвиях.
Атмoсфернoе давление в разных тoчках местнoсти мoжет значительнo oтличаться oт давления на метеoстанции, в зависимoсти oт услoвий рельефа (при пoдъёме на 10 м давление пoнижается примернo на 1 мм рт.ст.).